Retour au catalogue

CZ-6A DEB

ActifSSO
NORAD 56666·DEBRIS·🇨🇳 China

Lancé Nov 11, 2022 depuis Taiyuan Satellite Launch Center

Loading…

Prochains Passages (prochaines 24 heures)

TLE

VieillissantSource: Space-Track

Époque: Sep 9, 2026, 23:03 UTC

1 56666U 22151AGS 26252.96042940  .00000971  00000-0  28463-3 0  9994
2 56666  98.7243 315.7291 0074699  31.9398 328.6288 14.44626400177632

Suivez CZ-6A DEB en temps réel avec AllMySat

Download on the App Store